TimeCST,TemperatureF,Dew PointF,Humidity,Sea Level PressureIn,VisibilityMPH,Wind Direction,Wind SpeedMPH,Gust SpeedMPH,PrecipitationIn,Events,Conditions,WindDirDegrees,DateUTC
6:00 AM,73,72,94,29.88,12,NE,5.8,,,,Overcast,50,2012-10-08 12:00:00
6:00 AM,73.4,71.6,94,29.87,6.2,NE,5.8,-,N/A,,Overcast,50,2012-10-08 12:00:00
7:00 AM,77.0,73.4,89,29.88,6.2,ENE,3.5,-,N/A,,Overcast,70,2012-10-08 13:00:00
8:00 AM,80.6,73.4,79,29.91,6.2,South,4.6,-,N/A,,Mostly Cloudy,180,2012-10-08 14:00:00
9:00 AM,83,74,66,29.92,12,SSE,6.9,,,,Overcast,160,2012-10-08 15:00:00
9:00 AM,82.4,73.4,74,29.91,6.2,SSE,6.9,-,N/A,,Mostly Cloudy,160,2012-10-08 15:00:00
10:00 AM,82.4,73.4,74,29.91,6.2,SSE,5.8,-,N/A,,Mostly Cloudy,150,2012-10-08 16:00:00
11:00 AM,86.0,71.6,62,29.89,6.2,East,6.9,-,N/A,,Mostly Cloudy,100,2012-10-08 17:00:00
12:00 PM,82,74,72,29.90,12,SSE,8.1,,,Rain,Light Rain,160,2012-10-08 18:00:00
12:00 PM,82.4,75.2,79,29.89,6.2,SSE,8.1,-,N/A,Rain,Light Rain,160,2012-10-08 18:00:00
1:00 PM,82.4,75.2,79,29.86,6.2,South,8.1,-,N/A,Rain,Rain Showers,180,2012-10-08 19:00:00
1:15 PM,82.4,75.2,79,29.86,6.2,ESE,3.5,-,N/A,Rain-Thunderstorm,Rain,120,2012-10-08 19:15:00
1:28 PM,78.8,75.2,89,29.87,0.9,WNW,8.1,-,N/A,Rain-Thunderstorm,Light Thunderstorms and Rain,290,2012-10-08 19:28:00
1:37 PM,75.2,73.4,94,29.88,0.5,ESE,6.9,-,N/A,Rain,Heavy Rain,110,2012-10-08 19:37:00
2:00 PM,73.4,71.6,94,29.87,6.2,East,13.8,-,N/A,Rain-Thunderstorm,Light Thunderstorms and Rain,100,2012-10-08 20:00:00
3:00 PM,73.4,71.6,94,29.87,6.2,SSE,3.5,-,N/A,Rain,Light Rain,150,2012-10-08 21:00:00
4:00 PM,75.2,73.4,94,29.87,6.2,Calm,Calm,-,N/A,,Drizzle,0,2012-10-08 22:00:00
5:00 PM,75.2,73.4,94,29.88,5.0,Calm,Calm,-,N/A,Fog,Fog,0,2012-10-08 23:00:00
6:00 PM,75,74,94,29.90,9,Calm,Calm,,,,Overcast,,2012-10-09 00:00:00
6:00 PM,75.2,73.4,94,29.89,6.2,Calm,Calm,-,N/A,,Mostly Cloudy,0,2012-10-09 00:00:00
7:00 PM,75.2,73.4,94,29.92,5.0,West,4.6,-,N/A,Fog,Fog,270,2012-10-09 01:00:00
8:00 PM,75.2,73.4,94,29.95,5.6,Calm,Calm,-,N/A,,Drizzle,0,2012-10-09 02:00:00